Location: Nag� el Ma?a??a
(24.0667°N, 32.8833°E)
Time: 17:09:57
(UTC+00:00)

BREEZE-M DEB (TANK) - Pass Details

Date: 25 September 2021
Orbit: 425 x 13856 km, 45.9° (Epoch: 16 October)

Event Time Altitude Azimuth Distance (km) Brightness Sun altitude
Exits shadow 01:16:01 66° 188° (S) 1,474 4.1 -32.9°
Maximum altitude 01:17:05 77° 132° (SE) 1,568 4.4 -32.7°
Drops below altitude 10° 01:38:41 10° 49° (NE) 8,866 9.2 -27.9°
Sets 01:51:56 0° 50° (NE) 12,485 10.1 -24.9°
